[[{"header":{"parameterUnit":"m.s-1","parameterCategory":1,"la1":30.2991,"la2":30.254,"lo1":-89.0895,"lo2":-89.0444,"dy":0.0017,"dx":0.0017,"nx":28,"ny":28,"refTime":"2023-10-29T09:00:00:Z","depth":0,"parameterNumber":2,"parameterNumberName":"U-component_of_WINDS"},"data":[0,0,0,0,0,0,0,0,0,0,0,0,0,0,0,0,0,0,0,0,0,0,0,0,0,0,0,0,0,0,0,0,0,0,0,0,0,0,0,0,0,0,0,0,0,0,0,0,0,0,0,0,0,0,0,0,0,0,1.4955,1.4954,0,1.4947,1.4947,1.4947,1.4934,1.4934,1.4934,1.4934,1.4925,1.4925,1.4925,0,0,0,0,0,0,0,0,0,0,0,0,0,1.4957,1.4957,1.4955,1.4954,1.4954,1.4947,1.4947,1.4947,1.4934,1.4934,1.4934,1.4934,1.4925,1.4925,1.4925,0,0,0,0,0,0,0,0,0,0,0,0,0,1.4953,1.4957,1.4955,1.4947,1.4946,1.4947,1.4947,1.4947,1.4934,1.4934,1.4934,1.4933,1.4925,1.4925,1.4925,1.4932,0,0,1.4925,1.4925,0,0,0,0,0,0,0,0,1.4953,1.4953,1.4948,1.4948,1.4947,1.4941,1.4945,1.4942,1.4935,1.4939,1.4934,1.4933,1.4931,1.493,1.493,1.4932,1.4932,1.4925,1.4925,1.4925,1.4925,0,0,0,0,0,0,0,1.4954,1.4953,1.4952,1.4948,1.4947,1.4944,1.4943,1.4944,1.4937,1.4939,1.4938,1.4937,1.493,1.493,1.4929,1.4931,1.4925,1.4925,1.4925,1.4925,1.494,1.494,0,0,0,0,0,0,1.4955,1.4954,1.4952,1.4951,1.4949,1.4944,1.4943,1.4944,1.4937,1.4936,1.4937,1.4936,1.493,1.4929,1.4929,1.4937,1.4925,1.4925,1.4925,1.4939,1.494,1.494,0,0,0,0,0,0,1.4955,1.4955,1.4952,1.4952,1.4952,1.4945,1.4945,1.4944,1.4943,1.4936,1.4935,1.4938,1.493,1.4929,1.4932,1.4937,1.4925,1.4925,1.4939,1.494,1.494,1.4953,0,0,0,0,0,0,1.4955,1.4955,1.4958,1.4953,1.4952,1.4955,1.4945,1.4944,1.4943,1.4942,1.4936,1.4935,1.4929,1.4932,1.4932,1.4936,1.4925,1.4939,1.4939,1.494,1.4952,1.4954,1.4956,0,0,0,0,0,1.4955,1.4961,1.4958,1.4958,1.4955,1.4955,1.4955,1.4949,1.4944,1.4946,1.4942,1.4935,1.4936,1.4932,1.4932,1.4937,1.4938,1.4939,1.494,1.4951,1.4954,1.4956,0,0,0,0,0,0,1.4967,1.4961,1.4957,1.4961,1.4959,1.4953,1.4956,1.4951,1.495,1.4949,1.4941,1.4939,1.4943,1.494,1.4936,1.4944,1.4936,1.4937,1.4945,1.4947,1.4949,1.4949,1.4925,0,0,0,0,0,1.497,1.4971,1.4966,1.497,1.4969,1.4963,1.4963,1.4958,1.4956,1.4954,1.495,1.4948,1.4948,1.4947,1.4947,1.4952,1.4951,1.4956,1.4957,1.4959,1.4959,1.4962,1.4964,1.4943,1.4943,1.4943,0,0,1.4976,1.4973,1.4974,1.4972,1.497,1.4971,1.4962,1.4964,1.4965,1.4955,1.4957,1.4954,1.4951,1.4955,1.4957,1.4953,1.4965,1.496,1.4961,1.4961,1.4963,1.4965,1.4967,1.4944,1.4944,1.4944,0,0,1.4988,1.4986,1.4989,1.4988,1.4985,1.4981,1.4982,1.4977,1.4975,1.4977,1.497,1.4971,1.4971,1.4969,1.4968,1.498,1.4974,1.4981,1.4989,1.4992,1.4994,1.4995,1.4999,1.5001,1.4981,1.4981,1.4981,0,1.4995,1.4997,1.4992,1.4994,1.4993,1.4985,1.4989,1.4987,1.4984,1.4984,1.498,1.498,1.4977,1.4981,1.4984,1.4984,1.4985,1.498,1.4994,1.4995,1.4996,1.5,1.5002,1.4982,1.4982,1.4982,1.4982,0,1.5007,1.5008,1.5012,1.5009,1.5009,1.5012,1.5007,1.5008,1.5004,1.5,1.5003,1.5,1.4999,1.5,1.4995,1.5003,1.5,1.4995,1.4988,1.4999,1.5003,1.5004,1.4983,1.4983,1.4983,1.4982,0,0,1.5024,1.502,1.5021,1.502,1.5017,1.5018,1.5021,1.502,1.5021,1.502,1.5021,1.5022,1.5018,1.5017,1.5012,1.5015,1.5025,1.501,1.5009,1.5012,1.5033,1.5036,1.5038,1.5022,1.5022,1.5022,1.5033,0,1.5034,1.5039,1.5034,1.504,1.5041,1.5034,1.5037,1.5035,1.5033,1.5033,1.503,1.5031,1.5025,1.5024,1.5027,1.5023,1.5029,1.5023,1.5023,1.5023,1.5023,1.504,1.5043,1.5054,1.5035,1.5035,1.5035,0,1.5046,1.5046,1.5052,1.5049,1.505,1.5052,1.5051,1.5052,1.5051,1.5048,1.5048,1.5043,1.5046,1.5039,1.5043,1.5039,1.5039,1.5037,1.5037,1.5036,1.5029,1.5038,1.5057,1.5058,1.5037,1.5037,1.5037,0,1.5058,1.5059,1.5062,1.5062,1.5059,1.5061,1.506,1.5058,1.5058,1.5058,1.5058,1.5058,1.5057,1.5058,1.5053,1.5049,1.5057,1.505,1.5055,1.5055,1.5056,1.5055,1.5074,1.5057,1.5057,1.5057,1.5057,0,1.5069,1.5072,1.5068,1.507,1.5074,1.5069,1.5073,1.5071,1.507,1.5071,1.5066,1.5068,1.5062,1.5063,1.506,1.5063,1.5063,1.5061,1.506,1.5061,1.5061,1.506,1.5059,1.5058,1.5058,1.5058,1.5058,0,1.5081,1.5078,1.5082,1.5079,1.5079,1.5082,1.5079,1.5081,1.5079,1.5081,1.5081,1.5077,1.5079,1.5074,1.5075,1.5072,1.5077,1.5075,1.5078,1.5077,1.5082,1.5081,1.5099,1.5101,1.5084,1.5084,1.5085,0,1.5088,1.5091,1.5089,1.509,1.5089,1.5091,1.5091,1.5087,1.5088,1.5087,1.5089,1.509,1.509,1.5092,1.5089,1.509,1.5087,1.5093,1.5087,1.5088,1.5086,1.5086,1.5086,1.5094,1.5095,1.5095,1.5095,0,1.5101,1.5099,1.51,1.5101,1.5102,1.5102,1.5102,1.5103,1.5099,1.51,1.5101,1.5102,1.5103,1.5103,1.5104,1.5102,1.5098,1.5097,1.5098,1.5099,1.51,1.5099,1.508,1.5096,1.5096,1.5096,1.5096,1.5096,1.511,1.5112,1.5112,1.5113,1.5113,1.5113,1.5115,1.5113,1.5114,1.5115,1.5113,1.5115,1.5114,1.5113,1.5113,1.5114,1.5111,1.5113,1.5113,1.5113,1.5114,1.5101,1.5114,1.5114,1.5114,1.5114,1.5114,0,1.5122,1.5121,1.5123,1.5123,1.5125,1.5121,1.5121,1.5123,1.5124,1.5124,1.5125,1.5127,1.5128,1.5126,1.5127,1.5128,1.5126,1.5128,1.5128,1.5127,1.5117,1.5115,1.513,1.513,1.513,1.513,1.513,1.513,1.5128,1.5132,1.513,1.5134,1.5134,1.5136,1.5136,1.5136,1.5136,1.5139,1.514,1.5139,1.5138,1.5138,1.5139,1.5139,1.5139,1.5142,1.514,1.513,1.5128,1.5127,1.5125,1.5142,1.5142,1.5151,1.5151,1.5151]},{"header":{"parameterUnit":"m.s-1","parameterCategory":1,"la1":30.2991,"la2":30.254,"lo1":-89.0895,"lo2":-89.0444,"dy":0.0017,"dx":0.0017,"nx":28,"ny":28,"refTime":"2023-10-29T09:00:00:Z","depth":0,"parameterNumber":3,"parameterNumberName":"V-component_of_WINDS"},"data":[0,0,0,0,0,0,0,0,0,0,0,0,0,0,0,0,0,0,0,0,0,0,0,0,0,0,0,0,0,0,0,0,0,0,0,0,0,0,0,0,0,0,0,0,0,0,0,0,0,0,0,0,0,0,0,0,0,0,-8.0015,-8.0017,0,-8.0147,-8.0148,-8.015,-8.0093,-8.0089,-8.0086,-8.0083,-8.021,-8.0216,-8.0222,0,0,0,0,0,0,0,0,0,0,0,0,0,-7.9709,-7.9715,-8.0015,-8.0017,-8.0018,-8.0146,-8.0148,-8.015,-8.0093,-8.0089,-8.0085,-8.0082,-8.0208,-8.0215,-8.0223,0,0,0,0,0,0,0,0,0,0,0,0,0,-7.9841,-7.9717,-8.0015,-8.0006,-8.0006,-8.0146,-8.0148,-8.015,-8.0094,-8.0089,-8.0084,-8.008,-8.0205,-8.0215,-8.0224,-8.0378,0,0,-8.0253,-8.0257,0,0,0,0,0,0,0,0,-7.9834,-7.9853,-8.0005,-8.0007,-8.0007,-8.0099,-8.0087,-8.0226,-8.0095,-8.006,-8.0083,-8.0078,-8.0176,-8.0188,-8.0223,-8.0384,-8.0389,-8.0254,-8.026,-8.0264,-8.0266,0,0,0,0,0,0,0,-7.9825,-7.9847,-8.0067,-8.0008,-8.0009,-7.9993,-8.0007,-8.0113,-8.0143,-8.0063,-8.0059,-8.0076,-8.0176,-8.0214,-8.0225,-8.0391,-8.0254,-8.0262,-8.0268,-8.0272,-8.0687,-8.0692,0,0,0,0,0,0,-7.9817,-7.9839,-8.0063,-8.0071,-7.9907,-8.0003,-8.0018,-8.0074,-8.0142,-8.0148,-8.008,-8.0073,-8.02,-8.0214,-8.0229,-8.0415,-8.0264,-8.0273,-8.0278,-8.0681,-8.0688,-8.0693,0,0,0,0,0,0,-7.981,-7.9837,-8.0057,-7.9954,-7.9981,-8.0013,-8.0077,-8.0079,-8.0117,-8.0155,-8.0159,-8.0114,-8.0197,-8.0216,-8.0342,-8.0419,-8.0277,-8.0285,-8.0675,-8.0683,-8.0691,-8.0787,0,0,0,0,0,0,-7.9802,-7.9835,-7.9895,-7.9956,-7.9987,-8.017,-8.0081,-8.0085,-8.0134,-8.0126,-8.0187,-8.0193,-8.0194,-8.0329,-8.0352,-8.0429,-8.0293,-8.0668,-8.0679,-8.0688,-8.0777,-8.0797,-8.0814,0,0,0,0,0,-7.9791,-7.9915,-7.9899,-7.9926,-8.0063,-8.0175,-8.0192,-8.0193,-8.0141,-8.0201,-8.0225,-8.0191,-8.0407,-8.0342,-8.0368,-8.0449,-8.0663,-8.0676,-8.0687,-8.0769,-8.0793,-8.0814,0,0,0,0,0,0,-7.9858,-7.9923,-7.9905,-8.0053,-8.0109,-8.0165,-8.024,-8.0219,-8.0289,-8.0278,-8.0275,-8.0289,-8.042,-8.0447,-8.0374,-8.0602,-8.0527,-8.0544,-8.058,-8.0604,-8.0622,-8.0612,-8.0301,0,0,0,0,0,-7.9891,-7.9979,-8.0029,-8.0155,-8.0184,-8.0208,-8.0256,-8.0253,-8.031,-8.0333,-8.0366,-8.0421,-8.0501,-8.0554,-8.0629,-8.0781,-8.0793,-8.085,-8.0868,-8.0884,-8.0898,-8.0981,-8.1007,-8.0733,-8.0733,-8.0732,0,0,-7.9958,-8.0004,-8.0059,-8.017,-8.0213,-8.0302,-8.0228,-8.0325,-8.0391,-8.0346,-8.0469,-8.0496,-8.0556,-8.0697,-8.076,-8.0723,-8.0977,-8.0899,-8.0911,-8.0917,-8.0996,-8.1022,-8.1045,-8.0741,-8.0739,-8.0738,0,0,-8.0127,-8.0171,-8.0281,-8.0327,-8.0395,-8.041,-8.0437,-8.0497,-8.0514,-8.0637,-8.0607,-8.0684,-8.0822,-8.0867,-8.0908,-8.1097,-8.1067,-8.1121,-8.1218,-8.1299,-8.1321,-8.134,-8.1407,-8.1431,-8.1136,-8.1136,-8.1136,0,-8.0201,-8.0336,-8.0339,-8.044,-8.0489,-8.0458,-8.0569,-8.0612,-8.07,-8.0734,-8.0692,-8.0867,-8.0905,-8.1055,-8.1102,-8.1136,-8.1166,-8.1113,-8.1318,-8.1337,-8.1355,-8.1419,-8.1444,-8.1142,-8.1142,-8.1141,-8.114,0,-8.0424,-8.0519,-8.0599,-8.0689,-8.0748,-8.0853,-8.087,-8.0929,-8.0921,-8.0941,-8.1067,-8.1112,-8.1198,-8.1233,-8.1225,-8.1383,-8.1359,-8.1318,-8.1242,-8.1387,-8.1447,-8.1472,-8.1151,-8.1149,-8.1147,-8.1146,0,0,-8.0636,-8.0729,-8.0759,-8.08,-8.0874,-8.0946,-8.1049,-8.1136,-8.1186,-8.1248,-8.1335,-8.1454,-8.1418,-8.1464,-8.1461,-8.1532,-8.168,-8.1483,-8.1484,-8.1517,-8.1857,-8.1887,-8.1915,-8.1662,-8.1666,-8.167,-8.1852,0,-8.081,-8.0995,-8.1002,-8.117,-8.1257,-8.123,-8.132,-8.1374,-8.1396,-8.1471,-8.1494,-8.1579,-8.1524,-8.1552,-8.1622,-8.1647,-8.1747,-8.1634,-8.174,-8.1744,-8.1725,-8.1947,-8.1978,-8.2147,-8.1875,-8.1879,-8.1882,0,-8.1037,-8.1111,-8.1288,-8.1352,-8.1389,-8.147,-8.1551,-8.1625,-8.1685,-8.1696,-8.175,-8.1737,-8.1842,-8.1764,-8.1907,-8.183,-8.1874,-8.1893,-8.19,-8.1909,-8.1821,-8.1961,-8.2201,-8.2227,-8.1919,-8.1916,-8.1913,0,-8.1174,-8.1317,-8.1443,-8.1479,-8.1556,-8.1614,-8.1648,-8.1705,-8.1757,-8.1827,-8.1861,-8.1941,-8.1984,-8.2046,-8.2055,-8.1997,-8.2199,-8.2121,-8.2209,-8.2209,-8.2252,-8.2249,-8.2502,-8.2281,-8.2281,-8.2281,-8.228,0,-8.1367,-8.1477,-8.1506,-8.1583,-8.1705,-8.1712,-8.1831,-8.1861,-8.1912,-8.1993,-8.1973,-8.2049,-8.2056,-8.2134,-8.2141,-8.2259,-8.2279,-8.2289,-8.229,-8.2291,-8.229,-8.2318,-8.2307,-8.2287,-8.2286,-8.2285,-8.2283,0,-8.154,-8.1564,-8.1699,-8.1763,-8.1781,-8.1868,-8.1922,-8.1994,-8.2015,-8.2118,-8.2142,-8.2174,-8.2265,-8.228,-8.2386,-8.2391,-8.2532,-8.252,-8.2512,-8.2511,-8.2597,-8.2589,-8.2877,-8.2915,-8.2671,-8.2673,-8.2675,0,-8.1661,-8.1745,-8.182,-8.1874,-8.1913,-8.2,-8.2055,-8.2065,-8.2122,-8.2199,-8.2263,-8.2352,-8.2424,-8.257,-8.2601,-8.2682,-8.2672,-8.2768,-8.2684,-8.2683,-8.2673,-8.2668,-8.2676,-8.2783,-8.2786,-8.2788,-8.279,0,-8.1874,-8.1882,-8.1963,-8.2049,-8.2116,-8.2183,-8.2247,-8.2292,-8.231,-8.2375,-8.247,-8.2526,-8.2636,-8.2725,-8.2806,-8.2839,-8.2818,-8.2817,-8.2841,-8.2843,-8.2834,-8.284,-8.2556,-8.2809,-8.2807,-8.2806,-8.2805,-8.2804,-8.2024,-8.2099,-8.2164,-8.2254,-8.2305,-8.2365,-8.2438,-8.2469,-8.2549,-8.2642,-8.2643,-8.2746,-8.2805,-8.2913,-8.2952,-8.3031,-8.3,-8.3036,-8.3044,-8.3053,-8.3061,-8.2823,-8.3046,-8.3045,-8.3045,-8.3044,-8.3044,0,-8.2235,-8.2277,-8.2361,-8.2453,-8.2525,-8.2502,-8.2572,-8.2633,-8.2725,-8.2784,-8.2857,-8.2966,-8.3053,-8.3092,-8.3177,-8.3233,-8.3225,-8.3255,-8.325,-8.3258,-8.3084,-8.3055,-8.326,-8.326,-8.326,-8.326,-8.326,-8.326,-8.2354,-8.2479,-8.2496,-8.2646,-8.2685,-8.279,-8.2831,-8.2887,-8.2934,-8.3058,-8.3132,-8.3158,-8.3209,-8.3298,-8.3376,-8.3385,-8.3417,-8.3451,-8.3455,-8.3292,-8.327,-8.3249,-8.3221,-8.3458,-8.3458,-8.3622,-8.3624,-8.3625]}]]